Weather History for Ithaca, NY

Change the Weather History Date:

Friday, November 16, 2012

  Actual Average Record
Temperature  
Mean Temperature 31 °F -  
Max Temperature 41 °F 44 °F 72 °F (1956)
Min Temperature 21 °F 29 °F 8 °F (1933)
Degree Days  
Heating Degree Days 34    
Moisture  
Dew Point 25 °F    
Average Humidity 85    
Maximum Humidity 96    
Minimum Humidity 56    
Precipitation  
Precipitation 0.00 in - - ()
Sea Level Pressure  
Sea Level Pressure 30.43 in    
Wind  
Wind Speed 4 mph (NNW)    
Max Wind Speed 10 mph    
Max Gust Speed -    
Visibility 9 miles    
Events      
Averages and records for this station are not official NWS values.
T = Trace of Precipitation, MM = Missing Value Source: NWS Daily Summary

Daily Weather History Graph

Daily Weather History Graph

Search for Another Location

Airport:

Trip Planner

Search our weather history database for the weather conditions in past years. The results will help you decide how hot, cold, wet, or windy it might be!

Date:

Astronomy

Nov. 16, 2012 Rise Set
Actual Time 6:58 AM EST 4:42 PM EST
Civil Twilight 6:28 AM EST 5:12 PM EST
Nautical Twilight 5:54 AM EST 5:46 PM EST
Astronomical Twilight 5:20 AM EST 6:20 PM EST
Moon 9:52 AM EST (11/16) 7:38 PM EST (11/16)
Length of Visible Light 10h 44m
Length of Day
9h 43m
Waxing Crescent, 11% of the Moon is Illuminated
Nov 16
Waxing Crescent
Nov 20
First Quarter
Nov 28
Full
Dec 6
Last Quarter
Dec 13
New

Hourly Weather History & Observations

Time (EST) Temp. Windchill Dew Point Humidity Pressure Visibility Wind Dir Wind Speed Gust Speed Precip Events Conditions
12:56 AM 25.2 °F 18.3 °F 22.1 °F 88% 30.35 in 10.0 mi ENE 5.8 mph - N/A   Clear
1:56 AM 24.1 °F 18.2 °F 22.1 °F 92% 30.36 in 10.0 mi East 4.6 mph - N/A   Clear
2:56 AM 24.1 °F 18.2 °F 21.0 °F 88% 30.36 in 10.0 mi ENE 4.6 mph - N/A   Clear
3:56 AM 22.1 °F - 20.1 °F 92% 30.36 in 10.0 mi Calm Calm - N/A   Clear
4:56 AM 23.0 °F - 21.0 °F 92% 30.38 in 10.0 mi Calm Calm - N/A   Clear
5:56 AM 22.1 °F - 21.0 °F 96% 30.40 in 10.0 mi Calm Calm - N/A   Clear
6:04 AM 21.2 °F - 19.4 °F 93% 30.35 in 10.0 mi Calm Calm - N/A   Scattered Clouds
6:28 AM 21.2 °F - 19.4 °F 93% 30.35 in 10.0 mi Calm Calm - N/A   Partly Cloudy
6:56 AM 22.1 °F - 20.1 °F 92% 30.41 in 10.0 mi Calm Calm - N/A   Partly Cloudy
7:22 AM 21.2 °F - 19.4 °F 93% 30.37 in 10.0 mi Calm Calm - N/A   Scattered Clouds
7:56 AM 23.0 °F - 22.1 °F 96% 30.43 in 7.0 mi Calm Calm - N/A   Scattered Clouds
8:56 AM 30.0 °F 25.2 °F 29.1 °F 96% 30.43 in 5.0 mi NNW 4.6 mph - N/A   Scattered Clouds
9:56 AM 32.9 °F 29.8 °F 29.1 °F 86% 30.44 in 10.0 mi NW 3.5 mph - N/A   Partly Cloudy
10:56 AM 36.0 °F 31.1 °F 29.1 °F 76% 30.44 in 10.0 mi NW 5.8 mph - N/A   Partly Cloudy
11:56 AM 38.8 °F 33.8 °F 32.0 °F 76% 30.43 in 10.0 mi WNW 6.9 mph - N/A   Scattered Clouds
12:56 PM 41.9 °F 36.9 °F 27.1 °F 56% 30.42 in 10.0 mi NW 8.1 mph - N/A   Partly Cloudy
1:56 PM 41.9 °F 35.9 °F 31.1 °F 66% 30.42 in 10.0 mi NW 10.4 mph - N/A   Partly Cloudy
2:56 PM 41.0 °F 34.7 °F 31.1 °F 68% 30.43 in 10.0 mi WNW 10.4 mph - N/A   Clear
3:56 PM 39.9 °F 34.5 °F 29.1 °F 65% 30.45 in 10.0 mi NW 8.1 mph - N/A   Clear
4:56 PM 36.0 °F 33.3 °F 28.0 °F 73% 30.47 in 10.0 mi NNW 3.5 mph - N/A   Clear
5:56 PM 32.0 °F 28.7 °F 27.1 °F 82% 30.48 in 10.0 mi North 3.5 mph - N/A   Clear
6:56 PM 34.0 °F 28.8 °F 28.0 °F 79% 30.50 in 10.0 mi North 5.8 mph - N/A   Clear
7:56 PM 32.9 °F 27.5 °F 28.0 °F 82% 30.51 in 10.0 mi NNE 5.8 mph - N/A   Clear
8:56 PM 32.9 °F 29.8 °F 29.1 °F 86% 30.53 in 10.0 mi NNE 3.5 mph - N/A   Clear
9:56 PM 27.1 °F - 25.2 °F 92% 30.54 in 10.0 mi Calm Calm - N/A   Clear
10:56 PM 26.1 °F - 25.2 °F 96% 30.54 in 5.0 mi Calm Calm - N/A   Clear
11:56 PM 24.1 °F - 23.0 °F 96% 30.54 in 4.0 mi Calm Calm - N/A   Clear